AZERSPACE 1

Last updated on Thu Nov 21 2024 00:02:42 GMT+0000 (Coordinated Universal Time)

1 39079U 13006B 24325.23105135 .00000134 00000+0 00000+0 0 9990 2 39079 0.0339 78.1954 0001526 170.7365 299.9910 1.00269933 43056
UTC large
Height (km)
Speed (km/s)
/
Latitude / Longitude
Inclination (degrees)
Orbital Period (minutes)
Azimuth
Elevation
Range (km)
Doppler Factor

Next 0 passes for location: London (51.5072 / 0.1276)

Sorry there are no passes over London.